Regional Weather Roundup
Issued by NWS

Home | Current Version | Previous Version | Graphics & Text | Print | Product List | Glossary On
Versions: 1 2 3 4 5 6 7 8 9 10 11 12 13 14 15 16 17 18 19 20 21 22 23 24 25 26 27 28 29 30 31 32 33 34 35 36 37 38 39 40 41 42 43 44 45 46 47 48 49 50
000
ASUS45 KTFX 032110
RWRMT
MONTANA REGIONAL WEATHER ROUNDUP
NATIONAL WEATHER SERVICE GREAT FALLS MT
300 PM MDT WED JUN 03 2015

NOTE: "FAIR" INDICATES FEW OR NO CLOUDS BELOW 12000 FEET WITH NO
SIGNIFICANT WEATHER AND/OR OBSTRUCTIONS TO VISIBILITY.

MTZ001>007-043-032200-
WEST OF THE DIVIDE

CITY           SKY/WX    TMP DP  RH WIND       PRES   REMARKS
KALISPELL      LGT RAIN  54  44  69 NW9G24    29.97R
MISSOULA       LGT RAIN  62  43  49 W7        29.96S
BUTTE          PTSUNNY   65  36  34 SE12      29.96F
MULLAN PASS    CLOUDY    48  40  73 VRB5      30.03S
DEER LODGE       N/A     63  43  48 NW9       29.98F
EUREKA           N/A     63  43  48 W7        29.94F
HAMILTON         N/A     63  41  45 NE3       29.93F
LIBBY            N/A     66  45  45 N5        29.94F
PLAINS           N/A     62  46  55 W9        29.97S
RONAN            N/A     67  44  43 S1        29.99F
THOMPSON FALLS   N/A     61  49  64 CALM      30.01F
$$

MTZ008-052>055-032200-
SOUTHWEST MONTANA

CITY           SKY/WX    TMP DP  RH WIND       PRES   REMARKS
BOZEMAN        PTSUNNY   69  46  43 NW7       29.92F
DILLON         PTSUNNY   66  41  40 SW3       29.92F
W YELLOWSTONE  PTSUNNY   63  30  29 SW12G18   30.01F
THREE FORKS      N/A     69  22  17 E1        29.92F
TWIN BRIDGES     N/A     70  39  32 N3        29.93F
$$

MTZ009-010-012-014-046-048-049-054-032200-
EAST SLOPES AND CENTRAL MONTANA

CITY           SKY/WX    TMP DP  RH WIND       PRES   REMARKS
CUT BANK       MOSUNNY   68  39  34 W14       29.92F
GREAT FALLS    CLOUDY    67  43  41 NW3       29.92S
MALMSTROM AFB  MOSUNNY   67  42  40 S3        29.92F
HELENA         PTSUNNY   65  47  52 SE15      29.95S
CONRAD           N/A     67  48  50 CALM      29.96F
$$

MTZ011-013-016-021-045-047-050-051-032200-
NORTH CENTRAL MONTANA

CITY           SKY/WX    TMP DP  RH WIND       PRES   REMARKS
HAVRE          PTSUNNY   71  46  40 SW5       29.92S
LEWISTOWN      CLOUDY    58  48  69 CALM      29.99S
N BAR RANCH    HVY RAIN  55  52  88 VRB5G12   30.01R
CHINOOK          N/A     68  48  49 SE7       29.93F
FORT BENTON      N/A     72  43  35 S6        29.92F
$$

MTZ017>020-022>027-061-062-032200-
NORTHEAST MONTANA

CITY           SKY/WX    TMP DP  RH WIND       PRES   REMARKS
GLASGOW        MOSUNNY   70  50  49 SE10      29.96F
JORDAN           N/A     70  49  47 E12G20    29.95F
SIDNEY         SUNNY     70  48  46 N7        30.01S
WOLF POINT     SUNNY     71  49  45 E9        29.99F
MALTA            N/A     67  54  63 E3        29.92F
PLENTYWOOD       N/A     64  43  45 E6        30.03F
POPLAR           N/A     68  46  45 E8        30.00F
SCOBEY           N/A     68  43  40 E9        30.01F
$$

MTZ028>42-056>058-032200-
SOUTHCENTRAL AND SOUTHEAST MONTANA

CITY           SKY/WX    TMP DP  RH WIND       PRES   REMARKS
BAKER          SUNNY     69  44  40 E7        30.00F
BILLINGS       MOSUNNY   67  54  63 E12       29.95F
LIVINGSTON     PTSUNNY   71  42  35 CALM      29.92F
MILES CITY     MOSUNNY   71  50  47 S12       29.95F
BIG TIMBER       N/A     68  46  45 E13       29.94F
EKALAKA          N/A     68  46  45 E8        29.99F
FORSYTH          N/A     72  52  49 E8        29.94F
LAUREL           N/A     67  51  56 NE10      29.94F
ROUNDUP          N/A     70  50  49 NE9       29.86F
$$

REGIONAL REPORTS...DAKOTAS

CITY           SKY/WX    TMP DP  RH WIND       PRES   REMARKS
WILLISTON      SUNNY     69  44  40 NE8G16    30.01F
MINOT          SUNNY     64  35  34 N16       30.01F
DICKINSON      SUNNY     66  46  48 N10G16    30.00S
BEACH          FAIR      66  46  48 E10       30.01S
CROSBY         FAIR      64  45  48 N6        30.04S
BISMARCK       PTSUNNY   64  48  56 N17G23    29.99S
GRAND FORKS    CLOUDY    56  52  86 N16       29.89R
FARGO          CLOUDY    60  55  83 NW14      29.87R
BUFFALO SD       N/A     68  49  50 E7        29.94S
RAPID CITY     PTSUNNY   65  54  67 NE6       30.01S
$$

REGIONAL REPORTS...WYOMING/IDAHO/WASHINGTON

CITY           SKY/WX    TMP DP  RH WIND       PRES   REMARKS
GILLETTE       PTSUNNY   72  53  51 E9        29.96F
SHERIDAN       PTSUNNY   69  56  62 N8        29.95F
BUFFALO WY     LGT RAIN  64  55  72 CALM      29.99F
CODY           PTSUNNY   70  46  43 SE8G16    29.94F
YELLOWSTONE LA   N/A     58  30  34 VRB5      30.08F
IDAHO FALLS    PTSUNNY   74  39  28 NE6       29.91F
SALMON           N/A     66  45  45 N12       29.87F
BOISE          PTSUNNY   70  40  33 NW14      29.91F
SPOKANE        PTSUNNY   61  43  51 SW12      29.97F
$$

REGIONAL REPORTS...ALBERTA

CITY           SKY/WX    TMP DP  RH WIND       PRES   REMARKS
CALGARY        PTSUNNY   54  50  87 E5        29.91S
LETHBRIDGE     PTSUNNY   68  41  37 SW9G20    29.88F
MEDICINE HAT   PTSUNNY   72  46  40 SE9       29.90S
$$

REGIONAL REPORTS...SASKATCHEWAN

CITY           SKY/WX    TMP DP  RH WIND       PRES   REMARKS
SWIFT CURRENT  PTSUNNY   61  50  67 SE21      29.97F
REGINA         PTSUNNY   66  36  32 SW8       30.04S
SASKATOON      PTSUNNY   68  27  21 SW6       30.03S
$$


USA.gov is the U.S. government's official web portal to all federal, state and local government web resources and services.